Birmingham, AL

6:33 AM CST on February 27, 2017 (GMT -0600)
Birmingham International

Weather History for KBHM - July, 2012

Change the Weather History Date:

Monday, July 9, 2012

  Actual Average Record
Temperature  
Mean Temperature 84 °F 81 °F  
Max Temperature 93 °F 91 °F 102 °F (1930)
Min Temperature 75 °F 71 °F 55 °F (1947)
Cooling Degree Days 19 16  
Month to date cooling degree days 186 141  
Year to date cooling degree days 1126 805  
Since 1 June cooling degree days 606 523  
Growing Degree Days 33 (Base 50)    
Moisture  
Dew Point 68 °F    
Average Humidity 64    
Maximum Humidity 87    
Minimum Humidity 41    
Precipitation  
Precipitation 0.01 in 0.15 in 3.96 in (1968)
Month to date precipitation 0.52 1.42  
Year to date precipitation 22.75 29.77  
Sea Level Pressure  
Sea Level Pressure 29.99 in    
Wind  
Wind Speed 7 mph (WSW)    
Max Wind Speed 26 mph    
Max Gust Speed 35 mph    
Visibility 10 miles    
Events Thunderstorm    
T = Trace of Precipitation, MM = Missing Value Source: NWS Daily Summary

Daily Weather History Graph

Daily Weather History Graph

Search for Another Location

Airport or City:

Trip Planner

Search our weather history database for the weather conditions in past years. The results will help you decide how hot, cold, wet, or windy it might be!

Date:

Astronomy

Jul. 09, 2012 Rise Set
Actual Time 5:44 AM CDT 7:59 PM CDT
Civil Twilight 5:16 AM CDT 8:28 PM CDT
Nautical Twilight 4:41 AM CDT 9:03 PM CDT
Astronomical Twilight 4:03 AM CDT 9:40 PM CDT
Moon 11:38 PM CDT (7/9) 11:49 AM CDT (7/9)
Length of Visible Light 15h 12m
Length of Day
14h 15m
Waning Gibbous, 63% of the Moon is Illuminated
Jul 9
Waning Gibbous
Jul 10
Last Quarter
Jul 18
New
Jul 26
First Quarter
Aug 1
Full

Hourly Weather History & Observations

Time (CDT) Temp. Heat Index Dew Point Humidity Pressure Visibility Wind Dir Wind Speed Gust Speed Precip Events Conditions
12:53 AM 80.1 °F 83.6 °F 71.1 °F 74% 30.01 in 10.0 mi WSW 5.8 mph - N/A   Clear
1:53 AM 80.1 °F 83.6 °F 71.1 °F 74% 30.01 in 10.0 mi WSW 8.1 mph - N/A   Clear
2:53 AM 79.0 °F - 71.1 °F 77% 30.01 in 10.0 mi WSW 6.9 mph - N/A   Clear
3:53 AM 77.0 °F - 72.0 °F 84% 30.01 in 10.0 mi WSW 9.2 mph - N/A   Mostly Cloudy
4:53 AM 77.0 °F - 69.8 °F 78% 30.04 in 10.0 mi West 10.4 mph - N/A   Mostly Cloudy
5:53 AM 75.0 °F - 70.0 °F 84% 30.01 in 10.0 mi West 5.8 mph - N/A   Clear
6:53 AM 75.9 °F - 71.1 °F 85% 30.02 in 10.0 mi Variable 3.5 mph - N/A   Partly Cloudy
7:53 AM 78.1 °F - 70.0 °F 76% 30.03 in 10.0 mi SW 5.8 mph - N/A   Partly Cloudy
8:53 AM 81.0 °F 84.4 °F 70.0 °F 69% 30.02 in 10.0 mi SW 5.8 mph - N/A   Clear
9:53 AM 84.9 °F 88.2 °F 68.0 °F 57% 30.02 in 10.0 mi West 9.2 mph - N/A   Partly Cloudy
10:53 AM 86.0 °F 90.1 °F 69.1 °F 57% 30.02 in 10.0 mi West 10.4 mph - N/A   Partly Cloudy
11:53 AM 87.1 °F 91.3 °F 69.1 °F 55% 30.01 in 10.0 mi West 9.2 mph - N/A   Scattered Clouds
12:53 PM 89.1 °F 93.7 °F 69.1 °F 52% 29.99 in 10.0 mi Calm Calm - N/A   Partly Cloudy
1:53 PM 90.0 °F 93.6 °F 68.0 °F 48% 29.97 in 10.0 mi Calm Calm - N/A   Scattered Clouds
2:53 PM 91.9 °F 95.4 °F 66.9 °F 44% 29.95 in 10.0 mi West 9.2 mph - N/A   Partly Cloudy
3:53 PM 91.0 °F 93.0 °F 64.9 °F 42% 29.93 in 10.0 mi Calm Calm - N/A   Clear
4:53 PM 91.0 °F 93.8 °F 66.0 °F 44% 29.91 in 10.0 mi NW 6.9 mph - N/A   Scattered Clouds
5:53 PM 91.9 °F 94.1 °F 64.9 °F 41% 29.90 in 10.0 mi WNW 8.1 mph - N/A   Scattered Clouds
6:53 PM 91.4 °F 93.2 °F 64.4 °F 41% 29.95 in 10.0 mi West 9.2 mph - N/A   Partly Cloudy
7:53 PM 89.1 °F 91.0 °F 64.9 °F 45% 29.94 in 10.0 mi WNW 6.9 mph - N/A   Scattered Clouds
8:33 PM 86.0 °F 88.2 °F 66.2 °F 51% 30.00 in 10.0 mi South 17.3 mph 21.9 mph N/A Thunderstorm Thunderstorm
8:50 PM 78.8 °F - 68.0 °F 69% 30.01 in 10.0 mi SSE 13.8 mph 27.6 mph N/A Thunderstorm Thunderstorm
8:53 PM 79.0 °F - 66.9 °F 66% 29.99 in 10.0 mi SE 12.7 mph 26.5 mph N/A Thunderstorm Thunderstorm
9:53 PM 78.1 °F - 66.9 °F 68% 29.98 in 10.0 mi SSE 3.5 mph - 0.00 in Thunderstorm Thunderstorm
10:02 PM 77.0 °F - 66.2 °F 69% 30.01 in 10.0 mi SSE 3.5 mph - N/A   Partly Cloudy
10:53 PM 77.0 °F - 72.0 °F 84% 29.97 in 10.0 mi South 5.8 mph - 0.01 in   Partly Cloudy
11:53 PM 77.0 °F - 70.0 °F 79% 29.99 in 10.0 mi SSW 10.4 mph 16.1 mph N/A   Clear